{"data":{"norad_id":48788,"epoch":"2026-05-25T00:56:39.475392Z","epoch_age_seconds":68671,"freshness":"FRESH","line1":"1 48788U 21045X   26145.03934578 -.00000054  00000+0 -17790-3 0  9991","line2":"2 48788  87.9001 263.7916 0002119  91.3727 268.7646 13.15547186241241","mean_motion":13.15547186,"eccentricity":0.0002119,"inclination_deg":87.9001,"raan_deg":263.7916,"arg_perigee_deg":91.3727,"mean_anomaly_deg":268.7646,"bstar":-0.0001779,"rev_number":24124,"period_min":109.46015584423,"perigee_km":1200.169823283,"apogee_km":1203.3821904153,"semimajor_km":7579.9130068491,"source":"CELESTRAK","updated_at":"2026-05-25T13:38:22.445884Z"}}